Weather History for Port Angeles, WA

Change the Weather History Date:

Monday, August 5, 2013

  Actual Average Record
Temperature  
Mean Temperature 58 °F -  
Max Temperature 66 °F 68 °F 84 °F (1993)
Min Temperature 51 °F 52 °F 45 °F (1951)
Degree Days  
Heating Degree Days 8    
Growing Degree Days 8 (Base 50)    
Moisture  
Dew Point 51 °F    
Average Humidity 89    
Maximum Humidity 100    
Minimum Humidity 61    
Precipitation  
Precipitation 0.00 in - - ()
Sea Level Pressure  
Sea Level Pressure 30.01 in    
Wind  
Wind Speed 5 mph (WNW)    
Max Wind Speed 13 mph    
Max Gust Speed -    
Visibility 5 miles    
Events Fog    
Averages and records for this station are not official NWS values.
T = Trace of Precipitation, MM = Missing Value Source: NWS Daily Summary

Daily Weather History Graph

Daily Weather History Graph

Search for Another Location

Airport:

Trip Planner

Search our weather history database for the weather conditions in past years. The results will help you decide how hot, cold, wet, or windy it might be!

Date:

Astronomy

Aug. 05, 2013 Rise Set
Actual Time 5:55 AM PDT 8:43 PM PDT
Civil Twilight 5:19 AM PDT 9:19 PM PDT
Nautical Twilight 4:33 AM PDT 10:04 PM PDT
Astronomical Twilight 3:38 AM PDT 10:58 PM PDT
Moon 4:57 AM PDT (8/5) 7:43 PM PDT (8/5)
Length of Visible Light 15h 59m
Length of Day
14h 47m
Waning Crescent, 1% of the Moon is Illuminated
Aug 5
Waning Crescent
Aug 6
New
Aug 14
First Quarter
Aug 20
Full
Aug 28
Last Quarter

Hourly Weather History & Observations

Time (PDT) Temp. Dew Point Humidity Pressure Visibility Wind Dir Wind Speed Gust Speed Precip Events Conditions
12:43 AM 52.0 °F 51.1 °F 97% 30.00 in 7.0 mi NW 4.6 mph - N/A   Scattered Clouds
12:48 AM 51.8 °F 51.8 °F 100% 30.00 in 6.0 mi WNW 4.6 mph - N/A   Mostly Cloudy
12:53 AM 52.0 °F 51.1 °F 97% 30.00 in 3.0 mi WNW 4.6 mph - N/A   Mostly Cloudy
12:57 AM 52.0 °F 51.1 °F 97% 30.00 in 1.8 mi WNW 4.6 mph - N/A   Mostly Cloudy
1:04 AM 52.0 °F 51.1 °F 97% 30.00 in 0.8 mi WNW 4.6 mph - N/A   Mist
1:53 AM 52.0 °F 51.1 °F 97% 29.99 in 0.8 mi WNW 5.8 mph - N/A   Mist
2:04 AM 52.0 °F 51.1 °F 97% 29.99 in 1.5 mi WNW 4.6 mph - N/A   Overcast
2:53 AM 52.0 °F 51.1 °F 97% 29.99 in 0.5 mi WNW 3.5 mph - N/A Fog Fog
3:12 AM 52.0 °F 51.1 °F 97% 30.00 in 0.2 mi WNW 3.5 mph - N/A Fog Fog
3:53 AM 52.0 °F 51.1 °F 97% 30.00 in 0.5 mi West 3.5 mph - N/A Fog Fog
4:53 AM 52.0 °F 51.1 °F 97% 30.00 in 0.5 mi West 4.6 mph - N/A Fog Fog
5:33 AM 51.1 °F 50.0 °F 96% 30.01 in 0.2 mi WNW 6.9 mph - N/A Fog Fog
5:50 AM 51.8 °F 50.0 °F 94% 30.01 in 0.5 mi West 5.8 mph - N/A Fog Fog
5:53 AM 51.1 °F 50.0 °F 96% 30.01 in 0.5 mi West 4.6 mph - N/A Fog Fog
6:08 AM 51.1 °F 50.0 °F 96% 30.01 in 0.2 mi West 5.8 mph - N/A Fog Fog
6:53 AM 51.1 °F 50.0 °F 96% 30.02 in 0.2 mi WNW 5.8 mph - N/A Fog Fog
7:46 AM 51.1 °F 51.1 °F 100% 30.02 in 0.2 mi WNW 4.6 mph - N/A Fog Fog
7:53 AM 52.0 °F 51.1 °F 97% 30.03 in 0.2 mi West 4.6 mph - N/A Fog Fog
8:02 AM 52.0 °F 51.1 °F 97% 30.03 in 0.8 mi West 4.6 mph - N/A   Mist
8:08 AM 52.0 °F 51.1 °F 97% 30.03 in 1.0 mi NNW 3.5 mph - N/A   Overcast
8:10 AM 52.0 °F 51.1 °F 97% 30.03 in 0.8 mi Calm Calm - N/A   Overcast
8:18 AM 52.0 °F 52.0 °F 100% 30.03 in 1.2 mi Calm Calm - N/A   Overcast
8:25 AM 53.1 °F 52.0 °F 96% 30.03 in 3.0 mi Calm Calm - N/A   Overcast
8:38 AM 53.1 °F 53.1 °F 100% 30.03 in 9.0 mi Calm Calm - N/A   Overcast
8:53 AM 55.0 °F 52.0 °F 89% 30.03 in 10.0 mi NNW 3.5 mph - N/A   Mostly Cloudy
9:06 AM 55.0 °F 52.0 °F 89% 30.03 in 10.0 mi North 4.6 mph - N/A   Scattered Clouds
9:53 AM 59.0 °F 53.1 °F 81% 30.04 in 10.0 mi NNW 5.8 mph - N/A   Clear
10:53 AM 60.1 °F 52.0 °F 75% 30.04 in 10.0 mi North 5.8 mph - N/A   Clear
11:53 AM 62.1 °F 52.0 °F 70% 30.04 in 10.0 mi NW 5.8 mph - N/A   Clear
12:53 PM 61.0 °F 51.1 °F 70% 30.04 in 10.0 mi WNW 12.7 mph - N/A   Clear
1:53 PM 64.9 °F 52.0 °F 63% 30.03 in 10.0 mi NW 6.9 mph - N/A   Clear
2:53 PM 63.0 °F 51.1 °F 65% 30.02 in 10.0 mi NW 6.9 mph - N/A   Clear
3:53 PM 64.9 °F 51.1 °F 61% 30.01 in 10.0 mi WNW 6.9 mph - N/A   Clear
4:53 PM 64.0 °F 52.0 °F 65% 29.99 in 10.0 mi NW 6.9 mph - N/A   Clear
5:53 PM 63.0 °F 52.0 °F 67% 29.98 in 10.0 mi WNW 6.9 mph - N/A   Clear
6:53 PM 63.0 °F 53.1 °F 70% 29.97 in 10.0 mi NW 5.8 mph - N/A   Clear
7:53 PM 57.9 °F 52.0 °F 81% 29.97 in 10.0 mi NW 5.8 mph - N/A   Clear
8:53 PM 54.0 °F 51.1 °F 90% 29.97 in 10.0 mi NW 3.5 mph - N/A   Clear
9:46 PM 52.0 °F 50.0 °F 93% 29.98 in 10.0 mi WNW 6.9 mph - N/A   Scattered Clouds
9:53 PM 52.0 °F 50.0 °F 93% 29.98 in 10.0 mi WNW 6.9 mph - N/A   Scattered Clouds
10:53 PM 52.0 °F 50.0 °F 93% 29.98 in 10.0 mi West 8.1 mph - N/A   Clear
11:15 PM 51.1 °F 50.0 °F 96% 29.98 in 10.0 mi WNW 9.2 mph - N/A   Scattered Clouds
11:28 PM 51.1 °F 50.0 °F 96% 29.98 in 6.0 mi WNW 6.9 mph - N/A   Mostly Cloudy
11:53 PM 51.1 °F 50.0 °F 96% 29.98 in 2.5 mi West 8.1 mph - N/A   Overcast